Hyannis, MA

4:40 AM EDT on April 28, 2017 (GMT -0400)
Barnstable Municipal-Boardman-Polando Field

Weather History for KHYA - August, 2013

Change the Weather History Date:

Thursday, August 29, 2013

  Actual Average Record
Temperature  
Mean Temperature 66 °F -  
Max Temperature 70 °F 76 °F 99 °F (1948)
Min Temperature 61 °F 62 °F 42 °F (1954)
Growing Degree Days 16 (Base 50)    
Moisture  
Dew Point 62 °F    
Average Humidity 88    
Maximum Humidity 100    
Minimum Humidity 78    
Precipitation  
Precipitation 0.00 in - - ()
Sea Level Pressure  
Sea Level Pressure 29.99 in    
Wind  
Wind Speed 8 mph (NNE)    
Max Wind Speed 16 mph    
Max Gust Speed 20 mph    
Visibility 9 miles    
Events Rain    
Averages and records for this station are not official NWS values.
T = Trace of Precipitation, MM = Missing Value Source: NWS Daily Summary

Daily Weather History Graph

Daily Weather History Graph

Search for Another Location

Airport or City:

Trip Planner

Search our weather history database for the weather conditions in past years. The results will help you decide how hot, cold, wet, or windy it might be!

Date:

Astronomy

Aug. 29, 2013 Rise Set
Actual Time 6:04 AM EDT 7:18 PM EDT
Civil Twilight 5:35 AM EDT 7:47 PM EDT
Nautical Twilight 5:00 AM EDT 8:21 PM EDT
Astronomical Twilight 4:24 AM EDT 8:58 PM EDT
Moon No Moon Rise 2:47 PM EDT (8/29)
Length of Visible Light 14h 12m
Length of Day
13h 14m
Last Quarter, 38% of the Moon is Illuminated
Aug 29
Last Quarter
Sep 5
New
Sep 12
First Quarter
Sep 19
Full
Sep 26
Last Quarter

Hourly Weather History & Observations

Time (EDT) Temp. Dew Point Humidity Pressure Visibility Wind Dir Wind Speed Gust Speed Precip Events Conditions
12:08 AM 64.4 °F 64.4 °F 100% 29.93 in 2.5 mi NNE 6.9 mph - N/A   Overcast
12:16 AM 66.2 °F 64.4 °F 94% 29.93 in 4.0 mi North 6.9 mph - N/A   Overcast
12:56 AM 66.0 °F 64.9 °F 96% 29.94 in 10.0 mi NNW 4.6 mph - N/A   Overcast
1:56 AM 66.9 °F 66.0 °F 97% 29.94 in 5.0 mi NNE 6.9 mph - 0.00 in Rain Light Rain
2:56 AM 66.9 °F 66.0 °F 97% 29.93 in 9.0 mi North 8.1 mph - 0.00 in   Overcast
3:56 AM 66.9 °F 64.9 °F 93% 29.94 in 10.0 mi NNE 5.8 mph - N/A   Overcast
4:56 AM 66.0 °F 64.9 °F 96% 29.94 in 10.0 mi NE 9.2 mph - N/A   Overcast
5:56 AM 64.9 °F 64.0 °F 97% 29.95 in 10.0 mi NNE 12.7 mph - N/A   Overcast
6:56 AM 66.0 °F 64.0 °F 93% 29.96 in 10.0 mi NNE 10.4 mph - N/A   Overcast
7:56 AM 66.0 °F 64.0 °F 93% 29.97 in 10.0 mi NNE 10.4 mph - N/A   Overcast
8:56 AM 66.0 °F 64.0 °F 93% 29.99 in 10.0 mi NE 8.1 mph - N/A   Overcast
9:56 AM 66.9 °F 64.0 °F 90% 30.00 in 10.0 mi North 8.1 mph - N/A   Overcast
10:56 AM 66.9 °F 64.0 °F 90% 30.01 in 8.0 mi NNE 6.9 mph - N/A   Overcast
11:40 AM 68.0 °F 64.4 °F 88% 30.01 in 8.0 mi NE 8.1 mph - N/A   Overcast
11:56 AM 68.0 °F 64.9 °F 90% 30.01 in 8.0 mi NE 8.1 mph - N/A   Overcast
12:56 PM 68.0 °F 64.0 °F 87% 30.01 in 8.0 mi ENE 10.4 mph - N/A   Overcast
1:56 PM 69.1 °F 63.0 °F 81% 30.00 in 10.0 mi NNE 10.4 mph - N/A   Overcast
2:03 PM 69.8 °F 62.6 °F 78% 30.00 in 10.0 mi NNE 10.4 mph - N/A   Overcast
2:14 PM 68.0 °F 62.6 °F 83% 30.00 in 9.0 mi NNE 10.4 mph 19.6 mph N/A   Overcast
2:56 PM 66.9 °F 63.0 °F 87% 30.00 in 6.0 mi NE 9.2 mph 18.4 mph 0.00 in   Overcast
3:28 PM 68.0 °F 62.6 °F 83% 30.00 in 10.0 mi NE 12.7 mph 17.3 mph N/A   Overcast
3:56 PM 68.0 °F 61.0 °F 78% 30.00 in 10.0 mi NE 16.1 mph 19.6 mph N/A   Overcast
4:56 PM 64.9 °F 60.1 °F 84% 30.01 in 10.0 mi NNE 9.2 mph 18.4 mph N/A   Overcast
5:56 PM 64.0 °F 60.1 °F 87% 30.02 in 8.0 mi NNE 12.7 mph - N/A   Overcast
6:44 PM 64.4 °F 59.0 °F 83% 30.02 in 10.0 mi NNE 12.7 mph - N/A   Overcast
6:56 PM 64.0 °F 59.0 °F 84% 30.03 in 10.0 mi NNE 11.5 mph - N/A   Overcast
7:17 PM 62.6 °F 57.2 °F 82% 30.02 in 10.0 mi NNE 12.7 mph - N/A   Overcast
7:56 PM 63.0 °F 57.9 °F 84% 30.02 in 10.0 mi NNE 10.4 mph - N/A   Overcast
8:56 PM 62.1 °F 57.0 °F 84% 30.02 in 10.0 mi NNE 8.1 mph - N/A   Mostly Cloudy
9:15 PM 62.6 °F 57.2 °F 82% 30.02 in 10.0 mi NNE 5.8 mph - N/A   Mostly Cloudy
9:56 PM 62.1 °F 57.0 °F 84% 30.03 in 10.0 mi NE 6.9 mph - N/A   Overcast
10:56 PM 62.1 °F 57.0 °F 84% 30.02 in 10.0 mi NNE 5.8 mph - N/A   Mostly Cloudy
11:30 PM 62.6 °F 57.2 °F 82% 30.01 in 10.0 mi NNE 5.8 mph - N/A   Scattered Clouds
11:56 PM 61.0 °F 57.0 °F 87% 30.01 in 10.0 mi NE 5.8 mph - N/A   Partly Cloudy